Вернуться в каталог

ATLAS 5 CENTAUR DEB

LostHEO
NORAD 44898·DEBRIS·🇺🇸 United States

Запущен Oct 17, 2018 с Cape Canaveral Space Force Station

Loading…

Ближайшие Пролёты (ближайшие 24 часа)

TLE

УстаревшееSource: Space-Track

Эпоха: Jan 14, 2020, 20:51 UTC

1 44898U 18079BM  20014.86899287 -.00000041  00000-0  00000+0 0  9997
2 44898  11.4607 252.4739 4617034 280.5349  32.2818  2.03209585  1416

Отслеживайте ATLAS 5 CENTAUR DEB в реальном времени с AllMySat

Download on the App Store